Orbital Elements at Epoch 2459200.5 (2020-Dec-17.0) TDB
Reference: JPL 21 (heliocentric ecliptic J2000)
Element | Value | Uncertainty (1-sigma) | Units |
e | .06664926359188857 | 1.1978e-07 | |
a | 2.507961407059139 | 1.2797e-08 | au |
q | 2.340807626161771 | 3.0246e-07 | au |
i | 3.126668370047279 | 5.6944e-06 | deg |
node | 142.6171154254584 | 6.5113e-05 | deg |
peri | 26.26490411514889 | 7.3241e-05 | deg |
M | 43.63481307905003 | 3.7115e-05 | deg |
tp | 2459024.662978022425 (2020-Jun-24.16297802) | 0.00014966 | TDB |
period | 1450.706980163945 3.97 | 1.1103e-05 3.04e-08 | d yr |
n | .2481548685726433 | 1.8993e-09 | deg/d |
Q | 2.675115187956507 | 1.365e-08 | au |
|
| | Orbit Determination Parameters
Additional Information
|